Event Log

Records: 646 Pagina: 3 / 26 USB: 6E23CF207B ×
CSV
ID Machine Gebeurtenis Tijd Uren Service Status USB ID
300188 60-032 XAS Generator Under Volts Warning 24-07-2025 20:26:13 8763 -Niet ingesteld 6E23CF207B
299931 60-032 XAS kW Overload Alarm Warning 24-07-2025 04:40:23 8747 -Niet ingesteld 6E23CF207B
299894 60-032 XAS Engine Start 23-07-2025 17:25:32 8736 -Niet ingesteld 6E23CF207B
299893 60-032 XAS Engine Stopped 23-07-2025 17:24:26 8736 -Niet ingesteld 6E23CF207B
299880 60-032 XAS Engine Start 23-07-2025 16:40:51 8735 -Niet ingesteld 6E23CF207B
299878 60-032 XAS kW Overload Alarm Shutdown 23-07-2025 16:36:05 8735 -Niet ingesteld 6E23CF207B
299877 60-032 XAS Generator Under Volts Warning 23-07-2025 16:34:24 8735 -Niet ingesteld 6E23CF207B
299876 60-032 XAS Generator Over Current Warning 23-07-2025 16:33:51 8735 -Niet ingesteld 6E23CF207B
299875 60-032 XAS Generator Over Current Warning 23-07-2025 16:22:31 8735 -Niet ingesteld 6E23CF207B
299874 60-032 XAS Engine Start 23-07-2025 16:21:39 8735 -Niet ingesteld 6E23CF207B
299872 60-032 XAS kW Overload Alarm Shutdown 23-07-2025 16:17:56 8735 -Niet ingesteld 6E23CF207B
299857 60-032 XAS Generator Under Volts Warning 23-07-2025 13:55:04 8732 -Niet ingesteld 6E23CF207B
299775 60-032 XAS Generator Under Volts Warning 23-07-2025 09:27:28 8728 -Niet ingesteld 6E23CF207B
299774 60-032 XAS Generator Over Current Warning 23-07-2025 09:20:45 8728 -Niet ingesteld 6E23CF207B
299773 60-032 XAS Generator Under Volts Warning 23-07-2025 09:18:43 8728 -Niet ingesteld 6E23CF207B
299436 60-032 XAS Restart 21-07-2025 10:42:14 8681 -Niet ingesteld 6E23CF207B
289577 60-032 XAS Engine Start 05-02-2025 12:40:13 8273 -Niet ingesteld 6E23CF207B
289575 60-032 XAS Aardlekschakelaar Shutdown 05-02-2025 12:39:35 8273 -Niet ingesteld 6E23CF207B
271495 60-032 XAS MSC Failure Warning 09-12-2024 20:33:53 8272 -Niet ingesteld 6E23CF207B
271440 60-032 XAS Engine Start 09-12-2024 15:35:59 8272 -Niet ingesteld 6E23CF207B
271439 60-032 XAS Engine Stopped 09-12-2024 15:33:54 8272 -Niet ingesteld 6E23CF207B
271436 60-032 XAS Generator Over Volts Warning 09-12-2024 15:11:32 8272 -Niet ingesteld 6E23CF207B
271435 60-032 XAS Engine Start 09-12-2024 15:09:22 8272 -Niet ingesteld 6E23CF207B
271432 60-032 XAS Generator Over Volts Warning 09-12-2024 15:04:50 8272 -Niet ingesteld 6E23CF207B
271431 60-032 XAS Engine Start 09-12-2024 14:59:07 8272 -Niet ingesteld 6E23CF207B
51–75 van 646